FW0158 Weather Reports


time (UTC)temp
C
wind
direction
speed
KPH
gust
KPH
rain 1hr
cm
rain 24hr
cm
rain mn
cm
humidity
%
barometer
mb
20260506044513 22 227 6.4 12.9 0.00 0.00 0.03 68 1009.3
20260506043833 21 224 4.8 12.9 0.00 0.00 0.03 68 1009.7
20260506043153 21 219 6.4 12.9 0.00 0.00 0.03 68 1009.3
20260506042513 21 222 6.4 19.3 0.00 0.00 0.03 68 1009.7
20260506042300 21 218 4.8 16.1 0.00 0.00 0.03 68 1009.7
20260506035152 21 211 4.8 14.5 0.00 0.00 0.03 68 1009.7
20260506034725 21 224 8.0 14.5 0.00 0.00 0.03 68 1009.7
20260506033406 21 215 4.8 14.5 0.00 0.00 0.03 68 1010.0
20260506032727 21 206 6.4 16.1 0.00 0.00 0.03 68 1009.7
20260506031833 21 224 4.8 16.1 0.00 0.00 0.03 68 1010.0
20260506031403 21 213 4.8 11.3 0.00 0.00 0.03 68 1010.0
20260506030724 21 220 4.8 12.9 0.00 0.00 0.03 68 1010.0
20260506030044 21 218 3.2 12.9 0.00 0.00 0.03 68 1009.7
20260506024513 21 215 4.8 16.1 0.00 0.00 0.03 67 1009.7
20260506023620 21 203 4.8 14.5 0.00 0.00 0.03 67 1009.7
20260506022514 21 215 3.2 11.3 0.00 0.00 0.03 68 1009.7
20260506021833 21 235 3.2 11.3 0.00 0.00 0.03 67 1009.7
20260506021154 21 191 1.6 9.7 0.00 0.00 0.03 68 1009.3
20260506020724 21 196 3.2 9.7 0.00 0.00 0.03 68 1009.7
20260506014513 21 212 3.2 9.7 0.00 0.00 0.03 67 1009.3
20260506014300 21 219 3.2 17.7 0.00 0.00 0.03 67 1009.0
20260506013403 21 211 8.0 17.7 0.00 0.00 0.03 67 1009.3
20260506011833 21 219 4.8 12.9 0.00 0.00 0.03 66 1009.0
20260506011153 21 213 6.4 16.1 0.00 0.00 0.03 66 1009.0
20260506010514 21 216 6.4 16.1 0.00 0.00 0.03 66 1009.0
20260506005834 21 216 6.4 17.7 0.00 0.00 0.03 66 1009.0
20260506005406 21 232 6.4 19.3 0.00 0.00 0.03 66 1009.3
20260506003403 21 214 6.4 22.5 0.00 0.00 0.03 66 1009.7
20260506002937 21 215 6.4 19.3 0.00 0.00 0.03 64 1009.7
20260506001153 21 198 8.0 19.3 0.00 0.00 0.03 62 1009.3
20260506000726 21 208 8.0 17.7 0.00 0.00 0.03 62 1009.3
20260505235833 21 212 8.0 17.7 0.00 0.00 0.03 62 1009.3
20260505235620 21 213 4.8 22.5 0.00 0.00 0.03 62 1009.3
20260505234513 22 216 8.0 22.5 0.00 0.00 0.03 61 1009.3
20260505234043 22 212 4.8 19.3 0.00 0.00 0.03 61 1009.3
20260505233154 22 187 8.0 17.7 0.00 0.00 0.03 60 1009.3
20260505231406 22 212 8.0 22.5 0.00 0.00 0.03 60 1009.7
20260505225833 22 216 8.0 19.3 0.00 0.00 0.03 59 1009.7
20260505224514 22 217 9.7 20.9 0.00 0.00 0.03 58 1009.7
20260505224257 22 207 6.4 24.1 0.00 0.00 0.03 58 1009.7
20260505223404 22 217 11.3 20.9 0.00 0.00 0.03 57 1009.7
20260505222513 22 209 4.8 19.3 0.00 0.00 0.03 57 1009.7
20260505221834 22 217 8.0 17.7 0.00 0.00 0.03 56 1009.7
20260505221407 22 210 8.0 25.7 0.00 0.00 0.03 56 1009.7
20260505220043 22 201 6.4 19.3 0.00 0.00 0.03 56 1010.0
20260505215153 22 219 6.4 16.1 0.00 0.00 0.03 56 1010.0
20260505214513 22 217 4.8 19.3 0.00 0.00 0.03 56 1010.0
20260505214511 22 211 9.7 19.3 0.00 0.00 0.03 56 1010.0
20260505212939 22 206 6.4 17.7 0.00 0.00 0.03 56 1010.0
20260505211153 22 207 6.4 16.1 0.00 0.00 0.03 54 1010.0
20260505210514 22 199 6.4 19.3 0.00 0.00 0.03 55 1010.4
20260505205154 22 203 6.4 17.7 0.00 0.00 0.03 53 1010.0
20260505203833 22 205 6.4 16.1 0.00 0.00 0.03 53 1010.0
20260505203153 22 192 4.8 19.3 0.00 0.00 0.03 54 1010.4
20260505202513 22 190 4.8 25.7 0.00 0.00 0.03 53 1010.7
20260505202047 22 206 4.8 25.7 0.00 0.00 0.03 53 1010.7
20260505201154 22 204 4.8 19.3 0.00 0.00 0.03 54 1011.1
20260505195153 22 185 8.0 27.4 0.00 0.00 0.03 51 1010.7
20260505193407 22 173 9.7 19.3 0.00 0.00 0.03 49 1010.7
20260505192513 23 193 8.0 19.3 0.00 0.00 0.03 48 1011.1
20260505191154 22 206 9.7 19.3 0.00 0.00 0.03 53 1011.4
20260505185834 21 213 4.8 12.9 0.00 0.00 0.03 60 1011.4
20260505184513 20 213 4.8 19.3 0.00 0.00 0.03 63 1011.8
20260505183407 20 173 4.8 9.7 0.00 0.00 0.03 65 1011.8
20260505182723 20 194 3.2 9.7 0.00 0.00 0.03 65 1011.8
20260505181834 20 189 3.2 9.7 0.00 0.00 0.03 68 1011.8
20260505180938 20 159 3.2 9.7 0.00 0.00 0.03 69 1012.1
20260505180046 20 196 3.2 12.9 0.00 0.00 0.03 70 1012.4
20260505175154 20 207 4.8 12.9 0.00 0.00 0.03 64 1012.4
20260505174514 20 151 4.8 9.7 0.00 0.00 0.03 66 1012.4
20260505173153 20 214 3.2 9.7 0.00 0.00 0.03 62 1012.8
20260505171618 21 228 4.8 12.9 0.00 0.00 0.00 56 1013.5
20260505170939 21 229 4.8 11.3 0.00 0.00 0.00 55 1013.5
20260505165833 21 240 6.4 11.3 0.00 0.00 0.00 53 1013.5
20260505165154 21 235 6.4 14.5 0.00 0.00 0.00 51 1013.5
20260505164509 22 263 4.8 17.7 0.00 0.00 0.00 51 1013.5
20260505162725 22 296 9.7 19.3 0.00 0.00 0.00 50 1013.5
20260505161835 22 269 8.0 24.1 0.00 0.00 0.00 50 1013.5
20260505161619 22 284 11.3 24.1 0.00 0.00 0.00 49 1013.8
20260505160516 22 305 12.9 20.9 0.00 0.00 0.00 52 1013.8
20260505153154 21 288 12.9 20.9 0.00 0.00 0.00 50 1013.5
20260505152725 21 256 9.7 19.3 0.00 0.00 0.00 55 1013.5
20260505151619 21 210 6.4 17.7 0.00 0.00 0.00 57 1013.1
20260505124514 16 213 4.8 11.3 0.00 0.00 0.00 68 1012.8
20260505124259 16 222 4.8 9.7 0.00 0.00 0.00 69 1012.8
20260505123153 16 215 1.6 9.7 0.00 0.00 0.00 70 1012.8
20260505121154 15 130 1.6 8.0 0.00 0.00 0.00 71 1012.4
20260505120513 15 164 3.2 4.8 0.00 0.00 0.00 73 1012.1
20260505115618 15 149 1.6 3.2 0.00 0.00 0.00 76 1012.4
20260505114939 14 28 1.6 1.6 0.00 0.00 0.00 76 1012.4
20260505114300 14 234 0.0 3.2 0.00 0.00 0.00 75 1012.4
20260505113153 14 167 1.6 4.8 0.00 0.00 0.00 75 1012.1
20260505112514 14 174 1.6 3.2 0.00 0.00 0.00 76 1012.1
20260505111154 14 210 1.6 3.2 0.00 0.00 0.00 76 1012.1
20260505110513 14 247 0.0 3.2 0.00 0.00 0.00 75 1011.8
20260505102044 15 229 3.2 6.4 0.00 0.00 0.00 70 1011.4
20260505100046 15 210 1.6 6.4 0.00 0.00 0.00 68 1011.4
20260505095620 15 205 1.6 8.0 0.00 0.00 0.00 68 1011.1
20260505093833 15 231 4.8 9.7 0.00 0.00 0.00 68 1011.1
20260505093153 16 210 3.2 11.3 0.00 0.00 0.00 68 1011.1
20260505091833 16 223 4.8 14.5 0.00 0.00 0.00 67 1010.7
20260505091154 16 222 4.8 11.3 0.00 0.00 0.00 68 1010.7
20260505090939 16 244 4.8 11.3 0.00 0.00 0.00 67 1010.7
20260505085833 16 216 3.2 6.4 0.00 0.00 0.00 67 1011.1
20260505085153 16 209 3.2 11.3 0.00 0.00 0.00 68 1010.7
20260505084514 16 230 3.2 11.3 0.00 0.00 0.00 67 1010.7
20260505084044 16 204 3.2 8.0 0.00 0.00 0.00 66 1010.7
20260505083404 16 218 3.2 6.4 0.00 0.00 0.00 66 1010.7
20260505075833 15 209 1.6 4.8 0.00 0.00 0.00 67 1011.1
20260505073834 14 188 3.2 4.8 0.00 0.00 0.00 74 1011.4
20260505073618 14 151 1.6 3.2 0.00 0.00 0.00 76 1011.4
20260505072725 14 173 1.6 3.2 0.00 0.00 0.00 78 1011.8
20260505072046 13 147 1.6 3.2 0.00 0.00 0.00 78 1011.8
20260505070513 13 58 0.0 1.6 0.00 0.00 0.00 78 1012.1
20260505070043 14 62 0.0 1.6 0.00 0.00 0.00 77 1012.1
20260505064724 15 65 0.0 3.2 0.00 0.00 0.00 73 1011.8
20260505063833 15 38 1.6 3.2 0.00 0.00 0.00 71 1011.8
20260505063153 15 164 0.0 1.6 0.00 0.00 0.00 70 1011.8
20260505062726 15 190 0.0 1.6 0.00 0.00 0.00 69 1012.1
20260505062300 15 161 1.6 3.2 0.00 0.00 0.00 67 1011.8
20260505061621 16 178 1.6 3.2 0.00 0.00 0.00 65 1011.8
20260505060728 16 199 1.6 3.2 0.00 0.00 0.00 67 1012.1